星链-30487 (STARLINK-30487 )

导读

STARLINK-30487是美国SpaceX公司星链(Starlink)星座中的一颗通信卫星,于2023年9月24日发射升空,属于星链第一代卫星批次。星链项目旨在构建全球低轨宽带互联网星座,该卫星运行在数百公里低地球轨道,配备相控阵天线与氪离子霍尔推进器,具备自主轨道机动与避撞能力,为全球用户提供低延迟高速宽带接入服务,退役后会主动离轨再入大气层焚毁。

Basic Information
目录编号:
57924
目录名称:
STARLINK-30487
国际标识:
2023-147M
轨道中心:
EARTH
卫星名称:
星链-30487
卫星全名:
星链-30487 (STARLINK-30487 )
卫星状态:
在轨 (已飞行1000 天)
发射日期:
2023-09-24 UTC
国别 :
美国 (US)
星等 :
--
Orbit Information
数据来源 国际轨道数据 AOE轨道数据
星历时间 2026-06-20T04:58:36+0800
15小时前
查看轨道信息
2026-06-14T02:00:00+0800
6天前
查看轨道信息
半长轴 6861.276km 6861.208km
偏心率 0.000069 0.0000032
轨道倾角 43.002° 43.000°
近地点辐角 280.074° 162.918°
升交点赤经 111.692° 146.281°
平近点角 80.003° 320.106°
近地点 482.665km 483.049km
远地点 483.613km 483.093km
周期 94.269分钟 94.267分钟
每日圈数 15.275502 15.275729
Detailed Information
固有亮度:
5
最大亮度:
0.3
卫星平台:
Starlink v2.0 mini
覆盖范围:
全球
运营商:
太空探索技术公司
运营商所在国:
美国
制造商(研发单位):
太空探索技术公司
制造商所在国:
美国
使用方式:
暂无
Satellite Introduction
星链(Starlink)计划是由太空探索技术公司(SpaceX)提出的一个巨型低轨卫星互联网星座项目,计划在2019年至2024年间在太空搭建由约1.2万颗卫星组成的“星链”网络,其中1584颗将部署在地球上空550千米处的近地轨道,并从2020年开始工作。该卫星仍在工作。
2D Orbit Map
3D Orbit Map
Orbit Altitude Analysis Chart
Orbit Inclination Analysis Chart
Orbit Comprehensive Analysis Chart
View Comprehensive Chart